[[{"header":{"parameterUnit":"m.s-1","parameterCategory":1,"la1":30.2991,"la2":30.254,"lo1":-89.0895,"lo2":-89.0444,"dy":0.0017,"dx":0.0017,"nx":28,"ny":28,"refTime":"2023-07-21T09:00:00:Z","depth":0,"parameterNumber":2,"parameterNumberName":"U-component_of_WINDS"},"data":[0,0,0,0,0,0,0,0,0,0,0,0,0,0,0,0,0,0,0,0,0,0,0,0,0,0,0,0,0,0,0,0,0,0,0,0,0,0,0,0,0,0,0,0,0,0,0,0,0,0,0,0,0,0,0,0,0,0,2.7689,2.7689,0,2.7728,2.7728,2.7729,2.7727,2.7726,2.7726,2.7725,2.7766,2.7767,2.7769,0,0,0,0,0,0,0,0,0,0,0,0,0,2.7615,2.7616,2.7689,2.7689,2.769,2.7728,2.7728,2.7729,2.7727,2.7726,2.7726,2.7725,2.7765,2.7767,2.7769,0,0,0,0,0,0,0,0,0,0,0,0,0,2.7649,2.7616,2.7689,2.7693,2.7694,2.7728,2.7728,2.7729,2.7727,2.7726,2.7725,2.7725,2.7765,2.7767,2.7769,2.7801,0,0,2.7777,2.7778,0,0,0,0,0,0,0,0,2.7647,2.7652,2.7692,2.7693,2.7694,2.7722,2.7717,2.7753,2.7727,2.7715,2.7725,2.7724,2.7752,2.7755,2.7764,2.7803,2.7805,2.7777,2.7779,2.778,2.778,0,0,0,0,0,0,0,2.7645,2.7651,2.7704,2.7693,2.7694,2.7694,2.7698,2.7724,2.7737,2.7716,2.7716,2.772,2.7752,2.7762,2.7765,2.7805,2.7777,2.7779,2.7781,2.7782,2.7873,2.7874,0,0,0,0,0,0,2.7641,2.7649,2.7703,2.7705,2.7668,2.7696,2.7701,2.7714,2.7737,2.774,2.7721,2.772,2.7758,2.7763,2.7767,2.7806,2.778,2.7782,2.7783,2.7872,2.7874,2.7875,0,0,0,0,0,0,2.764,2.7646,2.7701,2.7677,2.7684,2.7698,2.7713,2.7715,2.7725,2.7741,2.7744,2.7728,2.7758,2.7763,2.7793,2.7808,2.7783,2.7785,2.7871,2.7873,2.7874,2.7885,0,0,0,0,0,0,2.7638,2.7646,2.7657,2.7677,2.7685,2.7726,2.7714,2.7716,2.7729,2.7728,2.7749,2.7752,2.7758,2.7789,2.7795,2.781,2.7787,2.787,2.7872,2.7874,2.7883,2.7886,2.7889,0,0,0,0,0,2.7635,2.7659,2.7658,2.7664,2.77,2.7727,2.7732,2.7738,2.773,2.7742,2.7753,2.7751,2.7805,2.7792,2.7799,2.7815,2.7869,2.7871,2.7873,2.7882,2.7886,2.7889,0,0,0,0,0,0,2.764,2.7661,2.7661,2.7691,2.7707,2.7727,2.7742,2.7742,2.7761,2.7759,2.7767,2.7772,2.7801,2.7811,2.7797,2.7848,2.7836,2.784,2.784,2.7844,2.7847,2.7844,2.7789,0,0,0,0,0,2.7645,2.7664,2.7682,2.7707,2.7716,2.7728,2.7739,2.7743,2.776,2.7767,2.778,2.7797,2.7818,2.7832,2.7852,2.7885,2.789,2.7899,2.7902,2.7905,2.7908,2.7927,2.7932,2.7882,2.7882,2.7882,0,0,2.7654,2.7668,2.768,2.7709,2.7722,2.7743,2.7733,2.7755,2.7771,2.777,2.7799,2.7809,2.7829,2.7861,2.7875,2.787,2.7923,2.7908,2.7909,2.7911,2.793,2.7935,2.7939,2.7883,2.7883,2.7883,0,0,2.7683,2.7695,2.7718,2.7732,2.7751,2.7759,2.7765,2.7785,2.7791,2.782,2.7821,2.784,2.7876,2.789,2.7902,2.7938,2.7937,2.7944,2.796,2.7979,2.7983,2.7986,2.8,2.8004,2.7947,2.7947,2.7947,0,2.7692,2.7723,2.773,2.7753,2.7766,2.7766,2.779,2.7803,2.7828,2.7838,2.7831,2.7877,2.789,2.7926,2.7935,2.7944,2.7951,2.7941,2.7981,2.7985,2.7989,2.8001,2.8006,2.7948,2.7948,2.7948,2.7948,0,2.7735,2.7757,2.7773,2.7798,2.7813,2.7836,2.7847,2.7861,2.7864,2.7873,2.7903,2.7919,2.7943,2.7952,2.7955,2.7988,2.7984,2.798,2.7968,2.7994,2.8006,2.8011,2.7949,2.7949,2.7949,2.7948,0,0,2.7767,2.7796,2.7802,2.7813,2.7836,2.7853,2.7877,2.7901,2.7913,2.7931,2.7952,2.7983,2.7979,2.7993,2.7997,2.8014,2.8042,2.8007,2.8008,2.8014,2.8081,2.8085,2.809,2.8042,2.8043,2.8044,2.808,0,2.7798,2.784,2.7847,2.7884,2.7905,2.7906,2.7927,2.7944,2.7953,2.7973,2.7983,2.8006,2.7998,2.8007,2.8023,2.8035,2.8056,2.8033,2.8062,2.8063,2.8057,2.8097,2.81,2.8134,2.8085,2.8086,2.8086,0,2.784,2.7859,2.7898,2.7919,2.7928,2.7947,2.7969,2.7988,2.8007,2.8013,2.8029,2.8032,2.8058,2.8045,2.8081,2.8066,2.8078,2.8086,2.8087,2.809,2.8076,2.8101,2.8144,2.8149,2.8094,2.8093,2.8093,0,2.786,2.7896,2.7924,2.7934,2.7959,2.7972,2.7983,2.8002,2.8016,2.8036,2.8045,2.8068,2.8081,2.8099,2.8109,2.8099,2.8145,2.8133,2.8151,2.8151,2.816,2.8159,2.8206,2.8168,2.8168,2.8168,2.8168,0,2.7894,2.7918,2.7933,2.7951,2.7978,2.7987,2.8014,2.8025,2.8042,2.8062,2.8065,2.8084,2.8095,2.8116,2.8124,2.8153,2.8159,2.8165,2.8166,2.8164,2.8164,2.8173,2.8171,2.8169,2.8169,2.8169,2.8168,0,2.7921,2.7932,2.7963,2.7985,2.7991,2.801,2.8029,2.8046,2.8056,2.8082,2.8088,2.8104,2.8129,2.814,2.8171,2.8176,2.821,2.821,2.8203,2.8204,2.8221,2.822,2.8276,2.8284,2.824,2.824,2.8241,0,2.7942,2.7961,2.7984,2.7998,2.801,2.8032,2.8046,2.8056,2.8071,2.8095,2.811,2.8135,2.8156,2.8196,2.821,2.8234,2.8235,2.8253,2.8238,2.8236,2.8236,2.8234,2.8237,2.8255,2.8256,2.8256,2.8256,0,2.7979,2.7984,2.8004,2.8028,2.8045,2.8064,2.8082,2.8093,2.8106,2.8123,2.8149,2.8165,2.8196,2.8222,2.8247,2.8259,2.826,2.8261,2.8267,2.8265,2.826,2.8263,2.821,2.826,2.8259,2.8259,2.8259,2.8259,2.8004,2.8021,2.804,2.8064,2.8079,2.8096,2.8114,2.8126,2.8148,2.8174,2.8179,2.8206,2.8227,2.826,2.8274,2.8296,2.8292,2.8299,2.8301,2.8303,2.8305,2.8257,2.83,2.83,2.83,2.83,2.83,0,2.8041,2.8054,2.8075,2.8101,2.812,2.812,2.814,2.8156,2.818,2.8199,2.8219,2.8249,2.8274,2.8291,2.8316,2.8331,2.8332,2.8337,2.8336,2.8339,2.8307,2.8299,2.8336,2.8336,2.8336,2.8336,2.8336,2.8335,2.8063,2.8092,2.8099,2.8136,2.8149,2.8176,2.8188,2.8204,2.8219,2.8253,2.8273,2.8284,2.8302,2.8329,2.8352,2.8357,2.8366,2.8371,2.8376,2.8345,2.8341,2.8338,2.8331,2.8373,2.8373,2.8406,2.8407,2.8407]},{"header":{"parameterUnit":"m.s-1","parameterCategory":1,"la1":30.2991,"la2":30.254,"lo1":-89.0895,"lo2":-89.0444,"dy":0.0017,"dx":0.0017,"nx":28,"ny":28,"refTime":"2023-07-21T09:00:00:Z","depth":0,"parameterNumber":3,"parameterNumberName":"V-component_of_WINDS"},"data":[0,0,0,0,0,0,0,0,0,0,0,0,0,0,0,0,0,0,0,0,0,0,0,0,0,0,0,0,0,0,0,0,0,0,0,0,0,0,0,0,0,0,0,0,0,0,0,0,0,0,0,0,0,0,0,0,0,0,-0.723,-0.723,0,-0.7236,-0.7236,-0.7236,-0.7225,-0.7225,-0.7224,-0.7224,-0.7231,-0.7232,-0.7232,0,0,0,0,0,0,0,0,0,0,0,0,0,-0.721,-0.721,-0.723,-0.723,-0.723,-0.7236,-0.7236,-0.7236,-0.7225,-0.7225,-0.7224,-0.7224,-0.7231,-0.7232,-0.7232,0,0,0,0,0,0,0,0,0,0,0,0,0,-0.7217,-0.721,-0.723,-0.7225,-0.7225,-0.7236,-0.7236,-0.7236,-0.7225,-0.7225,-0.7224,-0.7223,-0.7231,-0.7231,-0.7232,-0.7249,0,0,-0.7235,-0.7235,0,0,0,0,0,0,0,0,-0.7217,-0.7218,-0.7226,-0.7225,-0.7225,-0.7229,-0.7232,-0.7241,-0.7225,-0.7225,-0.7224,-0.7223,-0.7231,-0.7232,-0.7234,-0.7249,-0.725,-0.7235,-0.7235,-0.7236,-0.7236,0,0,0,0,0,0,0,-0.7216,-0.7218,-0.7232,-0.7226,-0.7225,-0.7223,-0.7224,-0.7233,-0.7231,-0.7225,-0.7224,-0.7225,-0.7231,-0.7233,-0.7234,-0.725,-0.7235,-0.7236,-0.7236,-0.7236,-0.7281,-0.7282,0,0,0,0,0,0,-0.7216,-0.7217,-0.7232,-0.7232,-0.7219,-0.7224,-0.7225,-0.7228,-0.7231,-0.7231,-0.7226,-0.7224,-0.7232,-0.7233,-0.7235,-0.7256,-0.7236,-0.7237,-0.7237,-0.728,-0.7281,-0.7282,0,0,0,0,0,0,-0.7216,-0.7218,-0.7232,-0.7225,-0.7226,-0.7225,-0.7229,-0.7229,-0.7232,-0.7231,-0.7231,-0.7229,-0.7232,-0.7233,-0.7246,-0.7256,-0.7237,-0.7238,-0.728,-0.7281,-0.7282,-0.7297,0,0,0,0,0,0,-0.7215,-0.7218,-0.7223,-0.7225,-0.7227,-0.7243,-0.723,-0.7229,-0.7233,-0.7232,-0.7234,-0.7234,-0.7232,-0.7245,-0.7247,-0.7257,-0.7238,-0.7279,-0.728,-0.7281,-0.7296,-0.7299,-0.7301,0,0,0,0,0,-0.7215,-0.7227,-0.7224,-0.7226,-0.7234,-0.7243,-0.7244,-0.7241,-0.7234,-0.724,-0.724,-0.7234,-0.7254,-0.7246,-0.7248,-0.7258,-0.7278,-0.728,-0.7281,-0.7295,-0.7298,-0.7301,0,0,0,0,0,0,-0.7227,-0.7227,-0.7223,-0.7237,-0.724,-0.7241,-0.7249,-0.7244,-0.725,-0.7248,-0.7244,-0.7245,-0.7259,-0.726,-0.7251,-0.7276,-0.7265,-0.7267,-0.7275,-0.7278,-0.7281,-0.728,-0.7239,0,0,0,0,0,-0.7231,-0.7238,-0.7238,-0.725,-0.7252,-0.725,-0.7254,-0.7251,-0.7254,-0.7256,-0.7257,-0.7261,-0.7268,-0.7273,-0.7279,-0.7296,-0.7297,-0.7304,-0.7307,-0.7309,-0.7311,-0.7322,-0.7325,-0.7287,-0.7287,-0.7287,0,0,-0.7239,-0.7241,-0.7245,-0.7252,-0.7254,-0.7263,-0.7251,-0.726,-0.7266,-0.7257,-0.7269,-0.7271,-0.7275,-0.729,-0.7296,-0.7291,-0.7322,-0.7311,-0.7313,-0.7314,-0.7324,-0.7327,-0.7331,-0.7288,-0.7288,-0.7288,0,0,-0.726,-0.7261,-0.7271,-0.7274,-0.7278,-0.7277,-0.728,-0.7282,-0.7282,-0.7295,-0.7289,-0.7296,-0.7309,-0.7312,-0.7316,-0.734,-0.7335,-0.7342,-0.7356,-0.7366,-0.7369,-0.7372,-0.7382,-0.7386,-0.7344,-0.7344,-0.7344,0,-0.727,-0.7282,-0.7278,-0.7287,-0.7291,-0.7284,-0.7295,-0.7298,-0.7304,-0.7307,-0.7301,-0.7318,-0.732,-0.7337,-0.7343,-0.7345,-0.7349,-0.7342,-0.7369,-0.7372,-0.7374,-0.7384,-0.7387,-0.7345,-0.7345,-0.7345,-0.7344,0,-0.7295,-0.7303,-0.7312,-0.7318,-0.7323,-0.7333,-0.7332,-0.7338,-0.7335,-0.7335,-0.7349,-0.7351,-0.7359,-0.7363,-0.7359,-0.738,-0.7376,-0.737,-0.7359,-0.7379,-0.7388,-0.7391,-0.7346,-0.7346,-0.7346,-0.7345,0,0,-0.7322,-0.7327,-0.7331,-0.7334,-0.7338,-0.7345,-0.7356,-0.7364,-0.737,-0.7374,-0.7384,-0.7396,-0.739,-0.7394,-0.7392,-0.7401,-0.7422,-0.7393,-0.7394,-0.74,-0.7446,-0.7452,-0.7456,-0.7418,-0.7419,-0.7419,-0.7446,0,-0.7344,-0.7362,-0.736,-0.7378,-0.7387,-0.7381,-0.739,-0.7395,-0.7395,-0.7403,-0.7404,-0.7413,-0.7404,-0.7407,-0.7416,-0.7417,-0.7431,-0.7415,-0.7429,-0.7429,-0.7429,-0.746,-0.7466,-0.7491,-0.7449,-0.745,-0.745,0,-0.7371,-0.7377,-0.7396,-0.7401,-0.7405,-0.7413,-0.7421,-0.7429,-0.7434,-0.7434,-0.744,-0.7436,-0.7448,-0.7437,-0.7455,-0.7444,-0.745,-0.7451,-0.7452,-0.7454,-0.7442,-0.7464,-0.7498,-0.7503,-0.7456,-0.7455,-0.7455,0,-0.7391,-0.7404,-0.7418,-0.7421,-0.7426,-0.7433,-0.7435,-0.744,-0.7446,-0.7453,-0.7457,-0.7465,-0.747,-0.7477,-0.7476,-0.7468,-0.7495,-0.7483,-0.7497,-0.7497,-0.7503,-0.7503,-0.754,-0.7505,-0.7505,-0.7505,-0.7504,0,-0.7415,-0.7428,-0.7427,-0.7435,-0.745,-0.7447,-0.7462,-0.7464,-0.7468,-0.7478,-0.7473,-0.7482,-0.748,-0.749,-0.7489,-0.7505,-0.7507,-0.7508,-0.7508,-0.7509,-0.7509,-0.7513,-0.7512,-0.7506,-0.7505,-0.7505,-0.7505,0,-0.744,-0.744,-0.7455,-0.7459,-0.746,-0.7471,-0.7475,-0.7484,-0.7484,-0.7497,-0.75,-0.7501,-0.7512,-0.7512,-0.7525,-0.7525,-0.7545,-0.7542,-0.7543,-0.7543,-0.7557,-0.7556,-0.7599,-0.7605,-0.7564,-0.7565,-0.7565,0,-0.7456,-0.7466,-0.7471,-0.7478,-0.7481,-0.749,-0.7496,-0.7495,-0.7501,-0.7509,-0.7517,-0.7528,-0.7537,-0.7555,-0.7558,-0.7568,-0.7566,-0.7581,-0.7568,-0.7569,-0.7568,-0.7568,-0.757,-0.7583,-0.7584,-0.7584,-0.7585,0,-0.7486,-0.7485,-0.7494,-0.7503,-0.751,-0.7517,-0.7524,-0.7529,-0.7529,-0.7536,-0.7548,-0.7555,-0.7568,-0.758,-0.759,-0.7593,-0.759,-0.7589,-0.7593,-0.7594,-0.7595,-0.7596,-0.7551,-0.7588,-0.7587,-0.7587,-0.7587,-0.7587,-0.7507,-0.7516,-0.7522,-0.7533,-0.7537,-0.7544,-0.7553,-0.7555,-0.7565,-0.7576,-0.7574,-0.7588,-0.7595,-0.7608,-0.7613,-0.7624,-0.7619,-0.7624,-0.7626,-0.7627,-0.763,-0.7593,-0.7625,-0.7625,-0.7625,-0.7625,-0.7625,0,-0.7538,-0.7542,-0.7551,-0.7561,-0.7569,-0.7565,-0.7572,-0.758,-0.7592,-0.7598,-0.7607,-0.7622,-0.7633,-0.7637,-0.7648,-0.7657,-0.7655,-0.766,-0.766,-0.7661,-0.7632,-0.7629,-0.7661,-0.7661,-0.7661,-0.7661,-0.7661,-0.7661,-0.7555,-0.757,-0.7571,-0.759,-0.7593,-0.7607,-0.7611,-0.7618,-0.7624,-0.764,-0.7649,-0.7652,-0.7658,-0.767,-0.7681,-0.7682,-0.7687,-0.7693,-0.7693,-0.7666,-0.7663,-0.7659,-0.7656,-0.7693,-0.7693,-0.7721,-0.7721,-0.7721]}]]